Location: Jaworzyna Śląska
(50.9128°N, 16.4318°E)
Time: 10:50:08
(UTC+01:00)

ISS - Pass Details

Date: 28 January 2019
Orbit: 403 x 411 km, 51.6° (Epoch: 22 February)

Event Time Altitude Azimuth Distance (km) Brightness Sun altitude
Rises 19:06:29 0° 264° (W) 2,335 1.5 -23.2°
Reaches altitude 10° 19:08:34 10° 266° (W) 1,477 0.1 -23.6°
Enters shadow 19:10:48 40° 273° (W) 625 -2.4 -23.9°
